{"data":{"norad_id":41921,"epoch":"2026-09-19T16:36:21.236544Z","epoch_age_seconds":85017,"freshness":"FRESH","line1":"1 41921U 17003E   26262.69191246  .00000028  00000+0  31066-5 0  9994","line2":"2 41921  86.4015  17.3510 0002354  97.4895 262.6569 14.34217771508686","mean_motion":14.34217771,"eccentricity":0.0002354,"inclination_deg":86.4015,"raan_deg":17.351,"arg_perigee_deg":97.4895,"mean_anomaly_deg":262.6569,"bstar":3.1066e-6,"rev_number":50868,"period_min":100.40316255431,"perigee_km":775.98260822119,"apogee_km":779.35156078418,"semimajor_km":7155.8040845027,"source":"CELESTRAK","updated_at":"2026-09-20T09:00:36.320491Z"}}